COSMOS 2251 DEB

Satellite information

Favourite Embed

Satellite Type and Status

DEBRISIN ORBIT

Key statistics

Satellite COSMOS 2251 DEB at a glance.

Uptime

11710

Days in orbit

Revolutions

≈ 14.9

Per day

Orbit

LEO

Low Earth Orbit

Inclination

74.0

Latest

Satellite identification and parameters

Extended collection of information and parameters for COSMOS 2251 DEB.

Object identification

Identified? True

Debris? True

Object name: COSMOS 2251 DEB

International designator: 1993-036AUQ

Object number (NORAD): 35901

Object ID (CCSDS): 35901

Country: COMMONWEALTH OF INDEPENDENT STATES (CIS)

Current information (Y/N): Y

RCS size: SMALL

Orbital parameters

Period: 96.497 minutes

Inclination: 74.0184 deg

SMA: 6968.98 km

Apoapsis: 599.748 km

Periapsis: 581.942 km

RAAN: 350.5123 deg

Eccentricy: 0.0012775

Argument of periapsis: 112.6952 deg

Mean anomaly: 63.2158 deg

Mean motion: 14.92275256 rev/day

Mean motion (dot): 0.00026354 rev/day2

B* drag term: 0.0025712 1/REarth

Two-line elements (TLE)

Creation date: July 5, 2025, 10:56 p.m.

Reference frame: TEME

Reference center: EARTH

Epoch: July 4, 2025, 5:30 a.m. UTC

TLE line 0: 0 COSMOS 2251 DEB

TLE line 1: 1 35901U 93036AUQ 25185.22986056 .00026354 00000-0 25712-2 0 9997

TLE line 2: 2 35901 74.0184 350.5123 0012775 112.6952 63.2158 14.92275256837939

Live tracking on map

Real-time ground track for satellite COSMOS 2251 DEB.

In-orbit conjunctions

A list of the most updated potential collisions computed for object COSMOS 2251 DEB.

Target Orbit TCA Probability of collision Miss distance Type
CZ-2C R/B SSO 2025-06-03 22:19:35 0.0001377112 804.0 (m) ROCKET BODY
ALOS DEB SSO 2024-11-19 12:16:00 0.0001258028 46.0 (m) DEBRIS

Associated space launch

Military communications satellite. Destroyed in a collision with Iridium 33.

COSMOS 2251 DEB was lifted into orbit during the mission ‘Kosmos-3M | Strela-2M 51’, on board a Kosmos-3M space rocket.

The launch took place on June 16, 1993, 4:17 a.m. from 132/1 (132L).

For more information about the launch, click the button.

Launch to space Kosmos-3M | Strela-2M 51
Kosmos-3M | Strela-2M 51

Agency: N/A

Status: Launch Successful

Launch date: June 16, 1993, 4:17 a.m. UTC

Rocket: Kosmos-3M

Launch pad: 132/1 (132L)

Location: Plesetsk Cosmodrome, Russian Federation

...

Latest news about this satellite

There are no fresh news available about this satellite. Check back as we update our databases every day.


Newsletter sign-up

Weekly statistics, charts and insights to help you stay on top of the space industry.